When you browse on this site, cookies collect data to enhance your experience and personalize the content and advertising you see.
Visit our Privacy Policy to learn more. By continuing to use the site, you agree to this use of cookies and data.
  • In Romania
  • List of Countries
  • For 7 days
  • Water Temperature
  • Satellite Maps
  • Weather Map
  • Weather Widgets
  • user-avatar
    Login

    Hourly Weather Sankt Polten

    Today, 18 January, Friday

    Time Temperature Precipitation Wind Pressure Humidity
    00:00 +2°C° 0.1 mm 5 mps 730 mmHg 86%
    01:00 +1°C° 0 mm 6 mps 731 mmHg 85%
    02:00 +1°C° 0.1 mm 5 mps 731 mmHg 85%
    03:00 +1°C° 0.1 mm 5 mps 731 mmHg 86%
    04:00 0°C° 0.1 mm 5 mps 732 mmHg 86%
    05:00 0°C° 0.1 mm 5 mps 732 mmHg 85%
    06:00 -1°C° 0.1 mm 5 mps 733 mmHg 84%
    07:00 -1°C° 0 mm 4 mps 733 mmHg 84%
    08:00 -1°C° 0 mm 4 mps 734 mmHg 83%
    09:00 -1°C° 0 mm 5 mps 734 mmHg 82%
    10:00 -2°C° 0 mm 6 mps 735 mmHg 81%
    11:00 -1°C° 0.1 mm 5 mps 735 mmHg 78%
    12:00 0°C° 0.1 mm 5 mps 736 mmHg 76%
    13:00 0°C° 0.1 mm 5 mps 736 mmHg 73%
    14:00 0°C° 0.1 mm 4 mps 736 mmHg 75%
    15:00 0°C° 0.1 mm 3 mps 737 mmHg 77%
    16:00 +1°C° 0.1 mm 2 mps 737 mmHg 79%
    17:00 -2°C° 0 mm 2 mps 737 mmHg 82%
    18:00 -3°C° 0 mm 2 mps 738 mmHg 85%
    19:00 -2°C° 0 mm 1 mps 738 mmHg 87%
    20:00 -2°C° 0 mm 1 mps 739 mmHg 87%
    21:00 -3°C° 0 mm 1 mps 739 mmHg 87%
    22:00 -3°C° 0 mm 1 mps 739 mmHg 86%
    23:00 -3°C° 0 mm 1 mps 739 mmHg 85%

    Tomorrow, 19 January, Saturday

    Time Temperature Precipitation Wind Pressure Humidity
    00:00 -3°C° 0 mm 1 mps 739 mmHg 85%
    01:00 -4°C° 0 mm 1 mps 739 mmHg 84%
    02:00 -4°C° 0 mm 1 mps 739 mmHg 83%
    03:00 -4°C° 0 mm 1 mps 739 mmHg 82%
    04:00 -4°C° 0 mm 1 mps 739 mmHg 81%
    05:00 -4°C° 0 mm 1 mps 739 mmHg 81%
    06:00 -4°C° 0 mm 1 mps 739 mmHg 81%
    07:00 -4°C° 0 mm 1 mps 738 mmHg 80%
    08:00 -5°C° 0 mm 2 mps 738 mmHg 77%
    09:00 -4°C° 0 mm 2 mps 738 mmHg 74%
    10:00 -3°C° 0 mm 2 mps 738 mmHg 71%
    11:00 -2°C° 0 mm 2 mps 738 mmHg 68%
    12:00 -1°C° 0 mm 2 mps 737 mmHg 64%
    13:00 +1°C° 0 mm 2 mps 737 mmHg 61%
    14:00 -1°C° 0 mm 2 mps 737 mmHg 64%
    15:00 -1°C° 0 mm 2 mps 736 mmHg 67%
    16:00 -2°C° 0 mm 2 mps 736 mmHg 70%
    17:00 -3°C° 0 mm 2 mps 736 mmHg 74%
    18:00 -4°C° 0 mm 2 mps 736 mmHg 78%
    19:00 -3°C° 0 mm 1 mps 736 mmHg 82%
    20:00 -3°C° 0 mm 1 mps 736 mmHg 82%
    21:00 -3°C° 0 mm 1 mps 736 mmHg 82%
    22:00 -3°C° 0 mm 1 mps 735 mmHg 82%
    23:00 -4°C° 0 mm 1 mps 735 mmHg 81%

    Day after tomorrow, 20 January, Sunday

    Time Temperature Precipitation Wind Pressure Humidity
    00:00 -4°C° 0 mm 1 mps 735 mmHg 81%
    01:00 -4°C° 0 mm 1 mps 735 mmHg 81%
    02:00 -4°C° 0 mm 1 mps 734 mmHg 81%
    03:00 -4°C° 0 mm 1 mps 734 mmHg 82%
    04:00 -4°C° 0 mm 1 mps 734 mmHg 82%
    05:00 -4°C° 0 mm 1 mps 734 mmHg 83%
    06:00 -4°C° 0 mm 1 mps 734 mmHg 83%
    07:00 -4°C° 0 mm 1 mps 734 mmHg 84%
    08:00 -4°C° 0 mm 0 mps 734 mmHg 81%
    09:00 -2°C° 0 mm 0 mps 735 mmHg 78%
    10:00 -1°C° 0 mm 0 mps 735 mmHg 76%
    11:00 0°C° 0 mm 0 mps 735 mmHg 73%
    12:00 +1°C° 0 mm 0 mps 735 mmHg 70%
    13:00 +2°C° 0 mm 0 mps 734 mmHg 68%
    14:00 +1°C° 0 mm 0 mps 734 mmHg 71%
    15:00 0°C° 0 mm 0 mps 735 mmHg 74%
    16:00 -1°C° 0 mm 0 mps 735 mmHg 78%
    17:00 -2°C° 0 mm 0 mps 735 mmHg 81%
    18:00 -2°C° 0 mm 1 mps 736 mmHg 84%
    19:00 -3°C° 0 mm 1 mps 736 mmHg 87%
    20:00 -3°C° 0 mm 1 mps 737 mmHg 86%
    21:00 -4°C° 0 mm 0 mps 737 mmHg 86%
    22:00 -4°C° 0 mm 0 mps 738 mmHg 86%
    23:00 -5°C° 0 mm 0 mps 738 mmHg 86%

    21 January, Monday

    Time Temperature Precipitation Wind Pressure Humidity
    00:00 -4°C° 0 mm 1 mps 738 mmHg 86%
    01:00 -4°C° 0 mm 1 mps 739 mmHg 85%
    02:00 -4°C° 0 mm 1 mps 739 mmHg 85%
    03:00 -4°C° 0 mm 1 mps 739 mmHg 85%
    04:00 -4°C° 0 mm 1 mps 739 mmHg 85%
    05:00 -6°C° 0 mm 1 mps 739 mmHg 86%
    06:00 -6°C° 0 mm 1 mps 740 mmHg 86%
    07:00 -6°C° 0 mm 1 mps 740 mmHg 86%
    08:00 -5°C° 0 mm 0 mps 740 mmHg 83%
    09:00 -3°C° 0 mm 0 mps 741 mmHg 80%
    10:00 -2°C° 0 mm 0 mps 741 mmHg 77%
    11:00 -1°C° 0 mm 0 mps 741 mmHg 73%
    12:00 0°C° 0 mm 0 mps 741 mmHg 70%
    13:00 +2°C° 0 mm 1 mps 741 mmHg 66%
    14:00 0°C° 0 mm 0 mps 740 mmHg 68%
    15:00 -1°C° 0 mm 0 mps 740 mmHg 70%
    16:00 -2°C° 0 mm 0 mps 740 mmHg 73%
    17:00 -3°C° 0 mm 0 mps 740 mmHg 74%
    18:00 -4°C° 0 mm 0 mps 741 mmHg 75%
    19:00 -5°C° 0 mm 0 mps 741 mmHg 76%
    20:00 -4°C° 0 mm 1 mps 741 mmHg 77%
    21:00 -4°C° 0 mm 1 mps 741 mmHg 77%
    22:00 -4°C° 0 mm 1 mps 741 mmHg 77%
    23:00 -4°C° 0 mm 1 mps 741 mmHg 78%

    22 January, Tuesday

    Time Temperature Precipitation Wind Pressure Humidity
    00:00 -6°C° 0 mm 1 mps 740 mmHg 78%
    01:00 -6°C° 0 mm 1 mps 740 mmHg 78%
    02:00 -6°C° 0 mm 1 mps 740 mmHg 78%
    03:00 -6°C° 0 mm 1 mps 739 mmHg 78%
    04:00 -6°C° 0 mm 1 mps 739 mmHg 79%
    05:00 -6°C° 0 mm 1 mps 738 mmHg 78%
    06:00 -6°C° 0 mm 1 mps 738 mmHg 78%
    07:00 -6°C° 0 mm 1 mps 737 mmHg 78%
    08:00 -4°C° 0 mm 1 mps 737 mmHg 75%
    09:00 -3°C° 0 mm 1 mps 736 mmHg 72%
    10:00 -2°C° 0 mm 0 mps 736 mmHg 68%
    11:00 -1°C° 0 mm 0 mps 735 mmHg 66%
    12:00 0°C° 0 mm 0 mps 733 mmHg 63%
    13:00 +2°C° 0 mm 0 mps 732 mmHg 61%
    14:00 +2°C° 0 mm 1 mps 731 mmHg 65%
    15:00 +1°C° 0 mm 1 mps 730 mmHg 68%
    16:00 0°C° 0 mm 1 mps 729 mmHg 72%
    17:00 -1°C° 0 mm 1 mps 729 mmHg 75%
    18:00 -2°C° 0 mm 1 mps 728 mmHg 78%
    19:00 -3°C° 0 mm 1 mps 728 mmHg 81%
    20:00 -4°C° 0 mm 1 mps 727 mmHg 81%
    21:00 -4°C° 0 mm 1 mps 726 mmHg 81%
    22:00 -6°C° 0 mm 1 mps 726 mmHg 81%
    23:00 -6°C° 0 mm 1 mps 725 mmHg 81%

    23 January, Wednesday

    Time Temperature Precipitation Wind Pressure Humidity
    00:00 -6°C° 0 mm 1 mps 724 mmHg 81%
    01:00 -6°C° 0 mm 1 mps 724 mmHg 81%
    02:00 -6°C° 0 mm 1 mps 723 mmHg 81%
    03:00 -6°C° 0 mm 1 mps 722 mmHg 81%
    04:00 -6°C° 0 mm 1 mps 722 mmHg 81%
    05:00 -6°C° 0 mm 1 mps 721 mmHg 80%
    06:00 -6°C° 0 mm 1 mps 721 mmHg 79%
    07:00 -4°C° 0 mm 1 mps 720 mmHg 78%
    08:00 -4°C° 0 mm 0 mps 720 mmHg 74%
    09:00 -3°C° 0 mm 0 mps 720 mmHg 71%
    10:00 -2°C° 0 mm 0 mps 719 mmHg 68%
    11:00 -1°C° 0 mm 0 mps 719 mmHg 66%
    12:00 -1°C° 0 mm 0 mps 718 mmHg 64%
    13:00 0°C° 0 mm 0 mps 717 mmHg 62%
    14:00 0°C° 0 mm 0 mps 717 mmHg 66%
    15:00 -1°C° 0 mm 0 mps 716 mmHg 70%
    16:00 -1°C° 0 mm 0 mps 716 mmHg 75%
    17:00 -2°C° 0.3 mm 0 mps 715 mmHg 80%
    18:00 -3°C° 0.3 mm 0 mps 715 mmHg 86%
    19:00 -3°C° 0.3 mm 0 mps 715 mmHg 92%
    20:00 -3°C° 0.7 mm 0 mps 715 mmHg 93%
    21:00 -2°C° 0.7 mm 1 mps 714 mmHg 94%
    22:00 -2°C° 0.7 mm 1 mps 714 mmHg 95%
    23:00 -2°C° 0.8 mm 1 mps 714 mmHg 95%
    Show more